Погода в Новоукраинке

Украина / Кировоградская область     48˚18′55″N   31˚31′36″E
темп.,
°C
ветер,
м/с
пор.,
м/с
влажн.,
%
обл.,
%
осадки,
мм/ч
давл.,
гПа
погр.,
м
6 декабря, вс
вс623:00−1˚в511740 0.0 1031428
02:00−2˚в611500 0.0 1032414
05:00−4˚в612490 0.0 1032359
08:00−4˚в613450 0.0 1032365
11:00−1˚в711350 0.0 1032454
14:00в710330 0.0 1031532
17:00−3˚в613450 0.0 1031429
20:00−4˚в613560 0.0 1032438
7 декабря, пн
пн723:00−5˚в612600 0.0 1032460
02:00−6˚в713620 0.0 1032448
05:00−7˚в612640 0.0 1031437
08:00−7˚в613640 0.0 1031463
11:00−4˚в812550 0.0 1030668
14:00−3˚в8126431 0.0 1028588
17:00−3˚в8135795 0.0 1028625
20:00−3˚в7146297 0.0 1028642
8 декабря, вт
вт823:00−4˚в714574 0.0 1027555
02:00−5˚в714652 0.0 1027551
05:00−6˚в7137324 0.0 1026597
08:00−6˚в6117560 0.0 1026625
11:00−4˚в6969100 0.0 1026659
14:00−3˚в5971100 0.0 1026515
17:00−3˚всв5106698 0.0 1026604
20:00−4˚в4117466 0.0 1026477
9 декабря, ср
ср923:00−4˚в5117853 0.0 1026429
02:00−4˚в6117564 0.0 1026411
05:00−4˚в71275100 0.0 1025362
08:00−4˚в61175100 0.0 1025372
11:00−3˚в61081100 0.1 1026408
14:00−2˚в6107498 0.1 1024385
17:00−1˚в6117897 0.0 1024406
20:00−1˚в7138498 0.0 1024382
10 декабря, чт
чт1023:00вюв71384100 0.0 1024370
02:00вюв7139199 0.1 1025371
05:00+1˚вюв81395100 0.1 1024357
08:00+2˚вюв81495100 0.2 1024406
11:00+4˚вюв81390100 0.0 1024431
14:00+4˚вюв81386100 0.0 1024538
17:00+3˚вюв8139198 0.0 1024433
20:00+3˚вюв8148699 0.0 1024492